Williston, ND

2:10 AM CDT on May 26, 2017 (GMT -0500)
Sloulin International

Weather History for KISN - June, 2013

Change the Weather History Date:

Sunday, June 23, 2013

  Actual Average Record
Temperature  
Mean Temperature 64 °F 65 °F  
Max Temperature 74 °F 79 °F 102 °F (1988)
Min Temperature 54 °F 52 °F 35 °F (1967)
Degree Days  
Heating Degree Days 1 3  
Month to date heating degree days 127 106  
Since 1 June heating degree days 127 106  
Since 1 July heating degree days 9420 8980  
Cooling Degree Days 0 3  
Month to date cooling degree days 10 43  
Year to date cooling degree days 18 56  
Since 1 June cooling degree days 10 43  
Growing Degree Days 14 (Base 50)    
Moisture  
Dew Point 54 °F    
Average Humidity 70    
Maximum Humidity 93    
Minimum Humidity 46    
Precipitation  
Precipitation 0.77 in 0.09 in 2.30 in (1920)
Month to date precipitation 4.16 1.90  
Year to date precipitation 11.97 6.51  
Snow  
Snow 0.00 in - - ()
Month to date snowfall 0.0  
Since 1 June snowfall 0.0  
Snow Depth 0.00 in    
Sea Level Pressure  
Sea Level Pressure 29.76 in    
Wind  
Wind Speed 10 mph (West)    
Max Wind Speed 20 mph    
Max Gust Speed 25 mph    
Visibility 9 miles    
Events Rain , Thunderstorm    
T = Trace of Precipitation, MM = Missing Value Source: NWS Daily Summary

Daily Weather History Graph

Daily Weather History Graph

Search for Another Location

Airport or City:

Trip Planner

Search our weather history database for the weather conditions in past years. The results will help you decide how hot, cold, wet, or windy it might be!

Date:

Astronomy

Jun. 23, 2013 Rise Set
Actual Time 5:54 AM CDT 9:58 PM CDT
Civil Twilight 5:13 AM CDT 10:40 PM CDT
Nautical Twilight 4:14 AM CDT 11:38 PM CDT
Astronomical Twilight 2:30 AM CDT 1:22 AM CDT
Moon 10:05 PM CDT (6/23) 6:20 AM CDT (6/23)
Length of Visible Light 17h 27m
Length of Day
16h 04m
Full, 100% of the Moon is Illuminated
Jun 23
Full
Jun 29
Last Quarter
Jul 8
New
Jul 15
First Quarter
Jul 22
Full

Hourly Weather History & Observations

Time (CDT) Temp. Dew Point Humidity Pressure Visibility Wind Dir Wind Speed Gust Speed Precip Events Conditions
12:52 AM 57.9 °F 55.9 °F 93% 29.82 in 10.0 mi WSW 5.8 mph - 0.04 in Rain Light Rain
1:52 AM 57.9 °F 54.0 °F 87% 29.76 in 10.0 mi West 13.8 mph - 0.00 in   Overcast
2:09 AM 57.2 °F 55.4 °F 94% 29.79 in 10.0 mi West 12.7 mph - 0.00 in Rain Light Rain
2:17 AM 57.2 °F 55.4 °F 94% 29.80 in 10.0 mi West 11.5 mph - 0.00 in Rain Light Rain
2:40 AM 57.2 °F 55.4 °F 94% 29.80 in 2.0 mi SSW 8.1 mph - 0.10 in Rain Heavy Rain
2:45 AM 57.2 °F 55.4 °F 94% 29.80 in 1.5 mi SW 13.8 mph - 0.18 in Rain Heavy Rain
2:52 AM 57.0 °F 55.0 °F 93% 29.79 in 2.5 mi SW 10.4 mph - 0.25 in Rain Rain
2:58 AM 57.2 °F 55.4 °F 94% 29.80 in 4.0 mi SW 11.5 mph - 0.03 in Rain Heavy Rain
3:24 AM 57.2 °F 55.4 °F 94% 29.81 in 2.5 mi West 11.5 mph - 0.22 in Rain Heavy Rain
3:30 AM 57.2 °F 55.4 °F 94% 29.80 in 3.0 mi WSW 12.7 mph - 0.24 in Rain Rain
3:52 AM 57.9 °F 55.9 °F 93% 29.78 in 9.0 mi WSW 8.1 mph - 0.30 in Rain Light Rain
4:52 AM 57.9 °F 55.0 °F 90% 29.77 in 5.0 mi West 13.8 mph 23.0 mph 0.05 in Rain Light Rain
5:52 AM 57.0 °F 54.0 °F 89% 29.78 in 10.0 mi WNW 17.3 mph - 0.03 in Rain Light Rain
6:52 AM 55.9 °F 53.1 °F 90% 29.79 in 9.0 mi WNW 15.0 mph - 0.02 in Rain Light Rain
7:52 AM 55.9 °F 53.1 °F 90% 29.78 in 7.0 mi North 3.5 mph - 0.08 in Rain Light Rain
8:52 AM 57.0 °F 54.0 °F 89% 29.77 in 10.0 mi WNW 8.1 mph - 0.04 in Rain Light Rain
9:52 AM 60.1 °F 55.0 °F 83% 29.78 in 10.0 mi West 10.4 mph - 0.00 in   Overcast
10:52 AM 60.1 °F 55.0 °F 83% 29.79 in 10.0 mi West 9.2 mph - N/A   Mostly Cloudy
11:52 AM 61.0 °F 54.0 °F 78% 29.78 in 10.0 mi WSW 6.9 mph - 0.00 in   Mostly Cloudy
12:52 PM 63.0 °F 55.9 °F 78% 29.76 in 10.0 mi SSW 11.5 mph - N/A   Clear
1:52 PM 66.9 °F 55.9 °F 68% 29.74 in 10.0 mi WSW 15.0 mph - N/A   Partly Cloudy
2:52 PM 71.1 °F 55.9 °F 59% 29.72 in 10.0 mi West 9.2 mph - N/A   Clear
3:52 PM 73.0 °F 53.1 °F 49% 29.70 in 10.0 mi WSW 13.8 mph - N/A   Clear
4:47 PM 66.2 °F 51.8 °F 60% 29.73 in 10.0 mi North 13.8 mph 20.7 mph N/A   Mostly Cloudy
4:52 PM 66.9 °F 51.1 °F 57% 29.72 in 10.0 mi North 16.1 mph - N/A   Mostly Cloudy
4:57 PM 69.8 °F 51.8 °F 53% 29.73 in 10.0 mi North 13.8 mph - N/A   Mostly Cloudy
5:13 PM 68.0 °F 51.8 °F 56% 29.73 in 10.0 mi NNW 10.4 mph - N/A Thunderstorm Mostly Cloudy
5:28 PM 69.8 °F 53.6 °F 56% 29.73 in 10.0 mi North 10.4 mph - N/A   Mostly Cloudy
5:52 PM 70.0 °F 54.0 °F 57% 29.71 in 10.0 mi NNW 8.1 mph - N/A   Partly Cloudy
6:52 PM 73.9 °F 52.0 °F 46% 29.70 in 10.0 mi West 13.8 mph 21.9 mph N/A   Partly Cloudy
7:52 PM 72.0 °F 51.1 °F 48% 29.71 in 10.0 mi West 13.8 mph - N/A   Clear
8:52 PM 69.1 °F 53.1 °F 57% 29.72 in 10.0 mi West 9.2 mph - N/A   Clear
9:52 PM 64.0 °F 53.1 °F 67% 29.73 in 10.0 mi WSW 6.9 mph - N/A   Clear
10:52 PM 59.0 °F 53.1 °F 81% 29.74 in 10.0 mi WNW 6.9 mph - N/A   Clear
11:52 PM 57.9 °F 52.0 °F 81% 29.75 in 10.0 mi Calm Calm - N/A   Clear